WZZ112 UKLL-UGTB

Flight info

Callsign WZZ112
Flight time 2h 33m
Altitude 35000
Route GORKU L984 NIROV P156 ODSAN M854 BOMKI M860 KUGOS/N0453F350 L851 KARDE UN644 ROLIN DCT LAGAS
Aircraft A320/M-SDE3FGHIRWY/LB1

Departure

Time 2026-04-30 05:33
Airport Lviv International Airport (UKLL)

Arrival

Time 2026-04-30 08:06
Airport Tbilisi International Airport (UGTB)
Time Latitude Longitude Altitude Speed Heading
2026-04-30 05:13 49.81264 23.95920 1066 ft 0 kts 46°
2026-04-30 05:23 49.81264 23.95919 1067 ft 3 kts 46°
2026-04-30 05:23 49.81247 23.95891 1070 ft 4 kts 46°
2026-04-30 05:23 49.81228 23.95861 1069 ft 4 kts 46°
2026-04-30 05:24 49.81218 23.95828 1070 ft 4 kts 104°
2026-04-30 05:24 49.81226 23.95804 1069 ft 0 kts 135°
2026-04-30 05:28 49.81224 23.95807 1069 ft 1 kts 135°
2026-04-30 05:29 49.81212 23.95824 1068 ft 4 kts 136°
2026-04-30 05:29 49.81174 23.95882 1066 ft 12 kts 136°
2026-04-30 05:29 49.81092 23.96003 1066 ft 19 kts 138°
2026-04-30 05:29 49.80967 23.96033 1066 ft 19 kts 180°
2026-04-30 05:30 49.80828 23.96055 1064 ft 21 kts 140°
2026-04-30 05:30 49.80729 23.96207 1066 ft 21 kts 136°
2026-04-30 05:30 49.80620 23.96368 1067 ft 22 kts 136°
2026-04-30 05:30 49.80504 23.96545 1065 ft 25 kts 136°
2026-04-30 05:31 49.80374 23.96740 1064 ft 27 kts 134°
2026-04-30 05:31 49.80239 23.96942 1065 ft 27 kts 135°
2026-04-30 05:31 49.80099 23.97152 1066 ft 28 kts 137°
2026-04-30 05:31 49.79998 23.97333 1067 ft 13 kts 99°
2026-04-30 05:32 49.79951 23.97440 1066 ft 11 kts 171°
2026-04-30 05:32 49.79950 23.97376 1067 ft 8 kts 315°
2026-04-30 05:32 49.80080 23.97180 1066 ft 56 kts 316°
2026-04-30 05:32 49.80499 23.96550 1065 ft 110 kts 315°
2026-04-30 05:33 49.81159 23.95564 1066 ft 152 kts 315°
2026-04-30 05:33 49.81961 23.94345 1368 ft 162 kts 317°
2026-04-30 05:33 49.82783 23.93160 1970 ft 162 kts 320°
2026-04-30 05:33 49.83623 23.91995 2574 ft 161 kts 321°
2026-04-30 05:34 49.84477 23.90812 3014 ft 171 kts 320°
2026-04-30 05:34 49.85399 23.89528 3357 ft 186 kts 320°
2026-04-30 05:34 49.86402 23.88126 3694 ft 203 kts 320°
2026-04-30 05:34 49.87488 23.86600 4031 ft 222 kts 319°
2026-04-30 05:35 49.88671 23.84928 4497 ft 239 kts 319°
2026-04-30 05:35 49.89994 23.83242 5034 ft 252 kts 334°
2026-04-30 05:35 49.91685 23.82773 5822 ft 251 kts 11°
2026-04-30 05:35 49.93272 23.83884 6612 ft 256 kts 36°
2026-04-30 05:36 49.94625 23.85727 7353 ft 262 kts 44°
2026-04-30 05:36 49.95889 23.87791 8098 ft 265 kts 46°
2026-04-30 05:36 49.97143 23.89913 8867 ft 269 kts 50°
2026-04-30 05:36 49.97972 23.92513 9647 ft 274 kts 76°
2026-04-30 05:37 49.97977 23.95490 10383 ft 282 kts 102°
2026-04-30 05:37 49.97108 23.98246 10993 ft 291 kts 123°
2026-04-30 05:37 49.96005 24.00966 11343 ft 304 kts 112°
2026-04-30 05:37 49.95369 24.04144 11664 ft 316 kts 99°
2026-04-30 05:38 49.94938 24.07574 11928 ft 332 kts 97°
2026-04-30 05:38 49.94534 24.11185 12172 ft 348 kts 97°
2026-04-30 05:38 49.94131 24.14981 12380 ft 364 kts 97°
2026-04-30 05:38 49.93724 24.18918 12738 ft 374 kts 96°
2026-04-30 05:39 49.93302 24.22926 13317 ft 378 kts 98°
2026-04-30 05:39 49.92634 24.26896 13920 ft 383 kts 104°
2026-04-30 05:39 49.91877 24.30885 14476 ft 387 kts 103°
2026-04-30 05:39 49.91111 24.34902 14994 ft 390 kts 104°
2026-04-30 05:40 49.90336 24.38947 15512 ft 393 kts 103°
2026-04-30 05:40 49.89554 24.43027 16039 ft 396 kts 104°
2026-04-30 05:40 49.88766 24.47129 16568 ft 399 kts 104°
2026-04-30 05:40 49.87980 24.51223 17092 ft 402 kts 103°
2026-04-30 05:41 49.87179 24.55391 17653 ft 405 kts 104°
2026-04-30 05:41 49.86369 24.59593 18170 ft 408 kts 104°
2026-04-30 05:41 49.85551 24.63829 18698 ft 412 kts 104°
2026-04-30 05:41 49.84724 24.68095 19159 ft 415 kts 103°
2026-04-30 05:42 49.83890 24.72383 19630 ft 417 kts 103°
2026-04-30 05:42 49.83050 24.76693 20098 ft 419 kts 103°
2026-04-30 05:42 49.82193 24.81025 20561 ft 422 kts 106°
2026-04-30 05:42 49.80996 24.85209 21007 ft 428 kts 116°
2026-04-30 05:43 49.79318 24.89048 21422 ft 434 kts 127°
2026-04-30 05:43 49.77193 24.92412 21816 ft 440 kts 137°
2026-04-30 05:43 49.74686 24.95176 22185 ft 446 kts 148°
2026-04-30 05:43 49.71964 24.97508 22537 ft 449 kts 149°
2026-04-30 05:44 49.69221 24.99842 22881 ft 451 kts 149°
2026-04-30 05:44 49.66509 25.02280 23223 ft 451 kts 143°
2026-04-30 05:44 49.64055 25.05291 23578 ft 450 kts 133°
2026-04-30 05:44 49.61974 25.08875 23899 ft 448 kts 123°
2026-04-30 05:45 49.60308 25.12924 24177 ft 446 kts 114°
2026-04-30 05:45 49.59093 25.17303 24441 ft 444 kts 105°
2026-04-30 05:45 49.58305 25.21897 24716 ft 444 kts 99°
2026-04-30 05:45 49.57605 25.26532 24995 ft 445 kts 99°
2026-04-30 05:46 49.56899 25.31182 25338 ft 445 kts 99°
2026-04-30 05:46 49.56430 25.34247 25610 ft 444 kts 99°
2026-04-30 05:46 49.55721 25.38863 26040 ft 442 kts 99°
2026-04-30 05:46 49.55009 25.43465 26442 ft 441 kts 99°
2026-04-30 05:47 49.54300 25.48046 26857 ft 440 kts 99°
2026-04-30 05:47 49.53362 25.54106 27428 ft 438 kts 99°
2026-04-30 05:47 49.52656 25.58658 27857 ft 437 kts 99°
2026-04-30 05:47 49.52179 25.61726 28149 ft 436 kts 99°
2026-04-30 05:48 49.51470 25.66264 28587 ft 435 kts 99°
2026-04-30 05:48 49.50765 25.70775 29030 ft 434 kts 99°
2026-04-30 05:48 49.50057 25.75281 29476 ft 433 kts 99°
2026-04-30 05:48 49.49349 25.79774 29908 ft 432 kts 99°
2026-04-30 05:49 49.48641 25.84250 30333 ft 431 kts 99°
2026-04-30 05:49 49.47940 25.88666 30708 ft 430 kts 99°
2026-04-30 05:49 49.47230 25.93130 31010 ft 431 kts 99°
2026-04-30 05:49 49.46517 25.97610 31280 ft 432 kts 99°
2026-04-30 05:50 49.45804 26.02105 31545 ft 434 kts 99°
2026-04-30 05:50 49.45087 26.06610 31829 ft 435 kts 100°
2026-04-30 05:50 49.44362 26.11130 32116 ft 436 kts 100°
2026-04-30 05:50 49.43630 26.15655 32394 ft 437 kts 101°
2026-04-30 05:51 49.42893 26.20203 32678 ft 439 kts 101°
2026-04-30 05:51 49.42157 26.24753 32966 ft 440 kts 101°
2026-04-30 05:51 49.41418 26.29315 33247 ft 441 kts 101°
2026-04-30 05:51 49.40676 26.33892 33527 ft 442 kts 101°
2026-04-30 05:52 49.39931 26.38474 33818 ft 443 kts 101°
2026-04-30 05:52 49.39181 26.43063 34094 ft 444 kts 102°
2026-04-30 05:52 49.38428 26.47662 34364 ft 445 kts 102°
2026-04-30 05:52 49.37671 26.52268 34584 ft 446 kts 102°
2026-04-30 05:53 49.36910 26.56890 34808 ft 446 kts 102°
2026-04-30 05:53 49.36147 26.61506 35014 ft 447 kts 102°
2026-04-30 05:53 49.35380 26.66129 35231 ft 448 kts 102°
2026-04-30 05:53 49.34606 26.70763 35378 ft 449 kts 102°
2026-04-30 05:54 49.33033 26.80131 35416 ft 460 kts 103°
2026-04-30 05:54 49.31416 26.89727 35412 ft 470 kts 103°
2026-04-30 05:55 49.29780 26.99435 35414 ft 471 kts 103°
2026-04-30 05:55 49.28139 27.09084 35416 ft 472 kts 103°
2026-04-30 05:56 49.26474 27.18801 35408 ft 472 kts 103°
2026-04-30 05:56 49.24802 27.28529 35409 ft 473 kts 103°
2026-04-30 05:57 49.23126 27.38256 35413 ft 473 kts 103°
2026-04-30 05:57 49.21434 27.47985 35409 ft 474 kts 104°
2026-04-30 05:58 49.19732 27.57718 35410 ft 474 kts 104°
2026-04-30 05:58 49.18014 27.67460 35406 ft 475 kts 104°
2026-04-30 05:59 49.16293 27.77209 35414 ft 475 kts 104°
2026-04-30 05:59 49.14565 27.86954 35415 ft 475 kts 104°
2026-04-30 06:00 49.12827 27.96690 35411 ft 476 kts 104°
2026-04-30 06:00 49.11082 28.06437 35403 ft 476 kts 104°
2026-04-30 06:01 49.09325 28.16186 35398 ft 476 kts 104°
2026-04-30 06:01 49.07557 28.25931 35399 ft 477 kts 105°
2026-04-30 06:02 49.05701 28.35646 35451 ft 478 kts 106°
2026-04-30 06:02 49.03896 28.45408 35430 ft 478 kts 104°
2026-04-30 06:03 49.02184 28.55144 35407 ft 479 kts 104°
2026-04-30 06:03 49.00404 28.64934 35391 ft 479 kts 105°
2026-04-30 06:04 48.98550 28.74687 35390 ft 480 kts 109°
2026-04-30 06:05 48.93210 28.87397 35370 ft 479 kts 138°
2026-04-30 06:05 48.87817 28.93272 35363 ft 478 kts 149°
2026-04-30 06:06 48.82172 28.98622 35371 ft 478 kts 149°
2026-04-30 06:06 48.76518 29.03952 35368 ft 478 kts 150°
2026-04-30 06:07 48.70897 29.09222 35369 ft 479 kts 150°
2026-04-30 06:07 48.65227 29.14524 35372 ft 479 kts 150°
2026-04-30 06:08 48.59560 29.19825 35365 ft 480 kts 150°
2026-04-30 06:08 48.53887 29.25133 35365 ft 480 kts 150°
2026-04-30 06:09 48.48209 29.30418 35365 ft 479 kts 150°
2026-04-30 06:09 48.42522 29.35666 35366 ft 479 kts 150°
2026-04-30 06:10 48.36839 29.40914 35360 ft 479 kts 150°
2026-04-30 06:10 48.31154 29.46160 35354 ft 480 kts 151°
2026-04-30 06:11 48.25467 29.51400 35361 ft 479 kts 151°
2026-04-30 06:11 48.19781 29.56630 35351 ft 480 kts 151°
2026-04-30 06:12 48.14124 29.61810 35361 ft 479 kts 151°
2026-04-30 06:12 48.08424 29.67001 35361 ft 480 kts 152°
2026-04-30 06:13 48.02687 29.72090 35359 ft 479 kts 153°
2026-04-30 06:13 47.96860 29.76906 35357 ft 479 kts 155°
2026-04-30 06:14 47.91007 29.81661 35356 ft 479 kts 154°
2026-04-30 06:14 47.85173 29.86468 35354 ft 480 kts 154°
2026-04-30 06:15 47.79341 29.91311 35349 ft 480 kts 154°
2026-04-30 06:15 47.73498 29.96143 35343 ft 480 kts 154°
2026-04-30 06:16 47.67660 30.00956 35340 ft 480 kts 155°
2026-04-30 06:16 47.61810 30.05760 35339 ft 481 kts 155°
2026-04-30 06:17 47.55956 30.10552 35340 ft 481 kts 155°
2026-04-30 06:17 47.50094 30.15332 35334 ft 481 kts 155°
2026-04-30 06:18 47.44231 30.20098 35334 ft 481 kts 155°
2026-04-30 06:18 47.38375 30.24869 35339 ft 481 kts 155°
2026-04-30 06:19 47.32521 30.29623 35337 ft 480 kts 155°
2026-04-30 06:19 47.26659 30.34343 35332 ft 480 kts 156°
2026-04-30 06:20 47.20792 30.39057 35331 ft 480 kts 156°
2026-04-30 06:20 47.14811 30.43282 35326 ft 473 kts 167°
2026-04-30 06:21 47.08469 30.45530 35319 ft 468 kts 173°
2026-04-30 06:21 47.02108 30.47606 35326 ft 468 kts 173°
2026-04-30 06:22 46.95753 30.49702 35331 ft 468 kts 173°
2026-04-30 06:22 46.89400 30.51792 35331 ft 468 kts 173°
2026-04-30 06:23 46.83055 30.53864 35330 ft 467 kts 173°
2026-04-30 06:23 46.76713 30.55932 35324 ft 467 kts 173°
2026-04-30 06:24 46.70382 30.57999 35325 ft 466 kts 173°
2026-04-30 06:24 46.64050 30.60055 35321 ft 466 kts 174°
2026-04-30 06:25 46.57724 30.62100 35321 ft 466 kts 174°
2026-04-30 06:25 46.51401 30.64137 35317 ft 466 kts 174°
2026-04-30 06:26 46.45106 30.66168 35314 ft 467 kts 173°
2026-04-30 06:26 46.39001 30.69763 35303 ft 482 kts 158°
2026-04-30 06:27 46.33103 30.74370 35307 ft 482 kts 158°
2026-04-30 06:27 46.27188 30.78927 35316 ft 482 kts 158°
2026-04-30 06:28 46.21264 30.83462 35308 ft 482 kts 158°
2026-04-30 06:28 46.15340 30.88004 35309 ft 482 kts 158°
2026-04-30 06:29 46.09410 30.92546 35306 ft 482 kts 159°
2026-04-30 06:29 46.03485 30.97083 35303 ft 482 kts 159°
2026-04-30 06:30 45.97553 31.01606 35304 ft 483 kts 159°
2026-04-30 06:30 45.91615 31.06117 35301 ft 483 kts 159°
2026-04-30 06:31 45.85678 31.10619 35303 ft 483 kts 160°
2026-04-30 06:31 45.79684 31.14916 35294 ft 481 kts 161°
2026-04-30 06:32 45.73688 31.19021 35291 ft 481 kts 162°
2026-04-30 06:32 45.67652 31.23152 35295 ft 481 kts 161°
2026-04-30 06:33 45.61635 31.27340 35292 ft 481 kts 161°
2026-04-30 06:33 45.55614 31.31558 35290 ft 482 kts 161°
2026-04-30 06:34 45.49597 31.35744 35286 ft 481 kts 162°
2026-04-30 06:34 45.43564 31.39902 35284 ft 481 kts 162°
2026-04-30 06:35 45.38552 31.43369 35284 ft 482 kts 161°
2026-04-30 06:35 45.32556 31.47648 35278 ft 483 kts 161°
2026-04-30 06:36 45.26555 31.51974 35275 ft 483 kts 161°
2026-04-30 06:36 45.20557 31.56268 35262 ft 483 kts 161°
2026-04-30 06:37 45.14551 31.60541 35259 ft 483 kts 162°
2026-04-30 06:37 45.08534 31.64800 35258 ft 483 kts 162°
2026-04-30 06:38 45.02513 31.69044 35254 ft 484 kts 162°
2026-04-30 06:38 44.96492 31.73293 35255 ft 484 kts 162°
2026-04-30 06:39 44.90468 31.77536 35255 ft 484 kts 162°
2026-04-30 06:39 44.84480 31.81745 35256 ft 484 kts 162°
2026-04-30 06:40 44.78452 31.85955 35246 ft 483 kts 162°
2026-04-30 06:40 44.72408 31.90096 35246 ft 483 kts 163°
2026-04-30 06:41 44.66361 31.94214 35248 ft 483 kts 163°
2026-04-30 06:41 44.60330 31.98328 35250 ft 482 kts 162°
2026-04-30 06:42 44.54337 32.02556 35250 ft 486 kts 156°
2026-04-30 06:42 44.48910 32.08448 35242 ft 497 kts 147°
2026-04-30 06:43 44.43650 32.14726 35245 ft 497 kts 147°
2026-04-30 06:43 44.38381 32.20976 35247 ft 496 kts 147°
2026-04-30 06:44 44.33151 32.27162 35242 ft 495 kts 147°
2026-04-30 06:44 44.27892 32.33368 35242 ft 495 kts 147°
2026-04-30 06:45 44.22646 32.39545 35276 ft 493 kts 145°
2026-04-30 06:45 44.17401 32.45709 35256 ft 493 kts 145°
2026-04-30 06:46 44.12158 32.51891 35244 ft 494 kts 144°
2026-04-30 06:46 44.06969 32.58178 35235 ft 495 kts 144°
2026-04-30 06:47 44.01779 32.64487 35231 ft 495 kts 144°
2026-04-30 06:47 43.96571 32.70763 35227 ft 496 kts 144°
2026-04-30 06:48 43.91347 32.77018 35224 ft 496 kts 144°
2026-04-30 06:48 43.86144 32.83221 35217 ft 497 kts 144°
2026-04-30 06:49 43.80905 32.89467 35214 ft 497 kts 144°
2026-04-30 06:49 43.75661 32.95704 35216 ft 497 kts 144°
2026-04-30 06:50 43.70408 33.01934 35211 ft 497 kts 144°
2026-04-30 06:50 43.65157 33.08157 35215 ft 497 kts 144°
2026-04-30 06:51 43.59901 33.14374 35210 ft 497 kts 144°
2026-04-30 06:51 43.54636 33.20557 35211 ft 497 kts 144°
2026-04-30 06:52 43.49355 33.26719 35212 ft 498 kts 144°
2026-04-30 06:52 43.44069 33.32872 35214 ft 498 kts 144°
2026-04-30 06:53 43.38787 33.39035 35211 ft 498 kts 144°
2026-04-30 06:53 43.33507 33.45185 35211 ft 498 kts 144°
2026-04-30 06:54 43.28252 33.51277 35207 ft 498 kts 144°
2026-04-30 06:54 43.22961 33.57398 35211 ft 497 kts 144°
2026-04-30 06:55 43.17669 33.63496 35214 ft 497 kts 144°
2026-04-30 06:55 43.12380 33.69584 35212 ft 497 kts 144°
2026-04-30 06:56 43.07088 33.75668 35210 ft 497 kts 144°
2026-04-30 06:56 43.01803 33.81739 35211 ft 496 kts 144°
2026-04-30 06:57 42.96512 33.87789 35210 ft 496 kts 144°
2026-04-30 06:57 42.91215 33.93819 35211 ft 496 kts 144°
2026-04-30 06:58 42.85922 33.99840 35213 ft 495 kts 144°
2026-04-30 06:58 42.80738 34.06019 35205 ft 498 kts 136°
2026-04-30 06:59 42.76766 34.13777 35201 ft 504 kts 117°
2026-04-30 06:59 42.74177 34.22644 35199 ft 504 kts 111°
2026-04-30 07:00 42.71672 34.31551 35206 ft 503 kts 112°
2026-04-30 07:00 42.69155 34.40424 35210 ft 503 kts 112°
2026-04-30 07:01 42.66637 34.49277 35207 ft 502 kts 112°
2026-04-30 07:01 42.64134 34.58059 35205 ft 501 kts 112°
2026-04-30 07:02 42.61614 34.66882 35203 ft 501 kts 112°
2026-04-30 07:02 42.59091 34.75697 35198 ft 501 kts 112°
2026-04-30 07:03 42.56561 34.84498 35195 ft 501 kts 112°
2026-04-30 07:03 42.54023 34.93293 35199 ft 500 kts 112°
2026-04-30 07:04 42.51484 35.02079 35190 ft 501 kts 112°
2026-04-30 07:04 42.48929 35.10852 35193 ft 500 kts 113°
2026-04-30 07:05 42.45090 35.23995 35196 ft 500 kts 113°
2026-04-30 07:05 42.42526 35.32742 35193 ft 500 kts 113°
2026-04-30 07:06 42.39960 35.41489 35186 ft 500 kts 113°
2026-04-30 07:06 42.37379 35.50225 35184 ft 500 kts 113°
2026-04-30 07:07 42.34795 35.58945 35183 ft 500 kts 113°
2026-04-30 07:07 42.32204 35.67658 35182 ft 499 kts 114°
2026-04-30 07:08 42.29608 35.76360 35183 ft 500 kts 114°
2026-04-30 07:08 42.27012 35.85061 35186 ft 499 kts 114°
2026-04-30 07:09 42.24426 35.93698 35191 ft 499 kts 114°
2026-04-30 07:09 42.21811 36.02374 35197 ft 499 kts 114°
2026-04-30 07:10 42.19186 36.11037 35200 ft 499 kts 114°
2026-04-30 07:10 42.16566 36.19690 35196 ft 498 kts 114°
2026-04-30 07:11 42.13935 36.28327 35197 ft 498 kts 114°
2026-04-30 07:11 42.11308 36.36949 35193 ft 497 kts 114°
2026-04-30 07:12 42.08677 36.45557 35195 ft 497 kts 114°
2026-04-30 07:12 42.06032 36.54149 35189 ft 496 kts 114°
2026-04-30 07:13 42.03386 36.62724 35187 ft 496 kts 114°
2026-04-30 07:13 42.00742 36.71280 35185 ft 495 kts 114°
2026-04-30 07:14 41.98109 36.79769 35180 ft 495 kts 114°
2026-04-30 07:14 41.95450 36.88314 35192 ft 499 kts 115°
2026-04-30 07:15 41.92741 36.96976 35186 ft 504 kts 115°
2026-04-30 07:15 41.90651 37.05959 35189 ft 506 kts 99°
2026-04-30 07:16 41.90235 37.15385 35188 ft 506 kts 90°
2026-04-30 07:16 41.90105 37.24837 35187 ft 507 kts 90°
2026-04-30 07:17 41.89952 37.34298 35187 ft 506 kts 90°
2026-04-30 07:18 41.89716 37.48472 35185 ft 506 kts 90°
2026-04-30 07:18 41.89553 37.57927 35188 ft 507 kts 90°
2026-04-30 07:19 41.89381 37.67323 35193 ft 507 kts 91°
2026-04-30 07:19 41.89199 37.76783 35188 ft 507 kts 90°
2026-04-30 07:20 41.89014 37.86236 35186 ft 507 kts 90°
2026-04-30 07:20 41.88824 37.95685 35184 ft 507 kts 91°
2026-04-30 07:21 41.88618 38.05140 35183 ft 507 kts 91°
2026-04-30 07:21 41.88402 38.14595 35188 ft 507 kts 91°
2026-04-30 07:22 41.88073 38.28773 35186 ft 507 kts 91°
2026-04-30 07:22 41.87845 38.38234 35192 ft 507 kts 91°
2026-04-30 07:23 41.87595 38.47674 35191 ft 506 kts 91°
2026-04-30 07:23 41.87343 38.57117 35192 ft 506 kts 91°
2026-04-30 07:24 41.87137 38.64969 35198 ft 506 kts 91°
2026-04-30 07:24 41.86884 38.74409 35196 ft 506 kts 91°
2026-04-30 07:25 41.86573 38.85442 35203 ft 506 kts 91°
2026-04-30 07:25 41.86343 38.93282 35207 ft 506 kts 91°
2026-04-30 07:26 41.86050 39.02716 35200 ft 506 kts 91°
2026-04-30 07:26 41.85754 39.12145 35199 ft 506 kts 91°
2026-04-30 07:27 41.85452 39.21574 35200 ft 506 kts 91°
2026-04-30 07:27 41.85142 39.30995 35201 ft 506 kts 91°
2026-04-30 07:28 41.84827 39.40353 35202 ft 506 kts 91°
2026-04-30 07:28 41.84506 39.49775 35202 ft 506 kts 91°
2026-04-30 07:29 41.84178 39.59192 35199 ft 506 kts 91°
2026-04-30 07:29 41.83847 39.68612 35202 ft 505 kts 92°
2026-04-30 07:30 41.83325 39.82738 35202 ft 505 kts 92°
2026-04-30 07:31 41.82967 39.92150 35201 ft 505 kts 92°
2026-04-30 07:31 41.82604 40.01564 35203 ft 505 kts 92°
2026-04-30 07:32 41.82228 40.10967 35203 ft 505 kts 92°
2026-04-30 07:32 41.81855 40.20377 35203 ft 505 kts 92°
2026-04-30 07:33 41.81476 40.29791 35204 ft 505 kts 92°
2026-04-30 07:33 41.81081 40.39144 35204 ft 506 kts 92°
2026-04-30 07:34 41.80679 40.48550 35208 ft 506 kts 92°
2026-04-30 07:34 41.80268 40.57957 35208 ft 506 kts 92°
2026-04-30 07:35 41.79840 40.67361 35210 ft 506 kts 92°
2026-04-30 07:35 41.79386 40.76767 35210 ft 506 kts 93°
2026-04-30 07:36 41.78918 40.86163 35208 ft 505 kts 93°
2026-04-30 07:36 41.78435 40.95559 35204 ft 506 kts 93°
2026-04-30 07:37 41.77952 41.04955 35200 ft 505 kts 93°
2026-04-30 07:37 41.77476 41.14343 35200 ft 505 kts 93°
2026-04-30 07:38 41.76985 41.23727 35200 ft 505 kts 93°
2026-04-30 07:38 41.76487 41.33107 35196 ft 505 kts 93°
2026-04-30 07:39 41.75990 41.42482 35196 ft 505 kts 93°
2026-04-30 07:39 41.75472 41.51851 35197 ft 504 kts 93°
2026-04-30 07:40 41.74944 41.61214 35190 ft 504 kts 94°
2026-04-30 07:40 41.74409 41.70512 35189 ft 504 kts 94°
2026-04-30 07:41 41.73873 41.79864 35189 ft 504 kts 94°
2026-04-30 07:41 41.73339 41.89209 35183 ft 503 kts 94°
2026-04-30 07:42 41.72791 41.98537 35164 ft 503 kts 94°
2026-04-30 07:42 41.72222 42.07873 35154 ft 503 kts 94°
2026-04-30 07:43 41.71651 42.17193 35147 ft 502 kts 94°
2026-04-30 07:43 41.71078 42.26530 35137 ft 503 kts 94°
2026-04-30 07:44 41.70497 42.35860 35143 ft 503 kts 94°
2026-04-30 07:44 41.69910 42.45181 35137 ft 503 kts 94°
2026-04-30 07:45 41.69311 42.54508 35129 ft 503 kts 94°
2026-04-30 07:45 41.68715 42.63781 35127 ft 503 kts 94°
2026-04-30 07:46 41.68106 42.73110 35130 ft 503 kts 94°
2026-04-30 07:46 41.67479 42.82434 35122 ft 503 kts 95°
2026-04-30 07:47 41.66844 42.91759 35124 ft 503 kts 95°
2026-04-30 07:47 41.66214 43.01076 35110 ft 503 kts 95°
2026-04-30 07:48 41.65577 43.10394 35118 ft 503 kts 95°
2026-04-30 07:48 41.65267 43.14854 35118 ft 503 kts 95°
2026-04-30 07:49 41.64613 43.24170 35112 ft 503 kts 95°
2026-04-30 07:49 41.64282 43.28802 34924 ft 496 kts 95°
2026-04-30 07:49 41.63956 43.33354 34677 ft 490 kts 95°
2026-04-30 07:49 41.63633 43.37905 34456 ft 492 kts 95°
2026-04-30 07:50 41.63310 43.42461 34192 ft 493 kts 95°
2026-04-30 07:50 41.62983 43.47049 33154 ft 500 kts 95°
2026-04-30 07:50 41.62651 43.51631 32233 ft 503 kts 95°
2026-04-30 07:50 41.62307 43.56302 31214 ft 507 kts 95°
2026-04-30 07:51 41.61957 43.61017 30174 ft 512 kts 95°
2026-04-30 07:51 41.61605 43.65741 29461 ft 507 kts 95°
2026-04-30 07:51 41.61255 43.70398 28710 ft 503 kts 95°
2026-04-30 07:51 41.60905 43.75029 27950 ft 498 kts 95°
2026-04-30 07:52 41.60559 43.79621 27155 ft 495 kts 95°
2026-04-30 07:52 41.60216 43.84186 26344 ft 493 kts 95°
2026-04-30 07:52 41.59873 43.88724 25500 ft 490 kts 95°
2026-04-30 07:52 41.59527 43.93246 24623 ft 489 kts 96°
2026-04-30 07:53 41.59177 43.97767 23588 ft 491 kts 96°
2026-04-30 07:53 41.58825 44.02308 22451 ft 491 kts 96°
2026-04-30 07:53 41.58475 44.06827 21533 ft 486 kts 96°
2026-04-30 07:53 41.58126 44.11298 20559 ft 483 kts 96°
2026-04-30 07:54 41.57778 44.15744 19607 ft 480 kts 96°
2026-04-30 07:54 41.57428 44.20162 18672 ft 476 kts 96°
2026-04-30 07:54 41.57062 44.24527 17807 ft 469 kts 97°
2026-04-30 07:54 41.56602 44.28815 16908 ft 463 kts 99°
2026-04-30 07:55 41.56054 44.33032 16073 ft 455 kts 101°
2026-04-30 07:55 41.55468 44.37133 15084 ft 446 kts 102°
2026-04-30 07:55 41.54878 44.41153 14287 ft 436 kts 101°
2026-04-30 07:55 41.54340 44.44900 13522 ft 429 kts 101°
2026-04-30 07:56 41.53814 44.48711 12796 ft 419 kts 101°
2026-04-30 07:56 41.53315 44.52484 12087 ft 408 kts 100°
2026-04-30 07:56 41.52846 44.56110 11418 ft 396 kts 100°
2026-04-30 07:56 41.52390 44.59662 11108 ft 377 kts 100°
2026-04-30 07:57 41.51958 44.63000 10984 ft 354 kts 100°
2026-04-30 07:57 41.51545 44.66149 10865 ft 335 kts 101°
2026-04-30 07:57 41.51150 44.69126 10734 ft 318 kts 101°
2026-04-30 07:57 41.50768 44.71979 10475 ft 308 kts 101°
2026-04-30 07:58 41.50392 44.74771 10307 ft 304 kts 101°
2026-04-30 07:58 41.50015 44.77552 10236 ft 305 kts 101°
2026-04-30 07:58 41.49638 44.80332 10123 ft 304 kts 101°
2026-04-30 07:58 41.49265 44.83105 9976 ft 303 kts 101°
2026-04-30 07:59 41.48889 44.85901 9501 ft 307 kts 101°
2026-04-30 07:59 41.48517 44.88662 9096 ft 299 kts 101°
2026-04-30 07:59 41.48147 44.91373 8480 ft 296 kts 101°
2026-04-30 08:00 41.47421 44.96655 7547 ft 285 kts 100°
2026-04-30 08:00 41.47064 44.99257 7091 ft 286 kts 100°
2026-04-30 08:00 41.46710 45.01841 6863 ft 278 kts 100°
2026-04-30 08:00 41.46562 45.04339 6747 ft 263 kts 83°
2026-04-30 08:01 41.47008 45.06622 6602 ft 250 kts 64°
2026-04-30 08:01 41.47959 45.08548 6240 ft 247 kts 45°
2026-04-30 08:01 41.49140 45.10179 5819 ft 243 kts 45°
2026-04-30 08:01 41.50316 45.11783 5392 ft 237 kts 39°
2026-04-30 08:02 41.53174 45.12291 4995 ft 211 kts 328°
2026-04-30 08:02 41.54270 45.11050 4710 ft 205 kts 316°
2026-04-30 08:03 41.56300 45.08475 4117 ft 196 kts 316°
2026-04-30 08:03 41.58136 45.06170 3652 ft 163 kts 316°
2026-04-30 08:03 41.58918 45.05187 3453 ft 151 kts 316°
2026-04-30 08:04 41.59693 45.04212 3242 ft 151 kts 316°
2026-04-30 08:04 41.60429 45.03286 3052 ft 143 kts 316°
2026-04-30 08:04 41.61150 45.02378 2850 ft 142 kts 315°
2026-04-30 08:04 41.61869 45.01472 2647 ft 142 kts 316°
2026-04-30 08:05 41.62588 45.00566 2434 ft 142 kts 316°
2026-04-30 08:05 41.63308 44.99657 2233 ft 141 kts 316°
2026-04-30 08:05 41.64020 44.98757 2071 ft 140 kts 315°
2026-04-30 08:05 41.64728 44.97865 1870 ft 140 kts 315°
2026-04-30 08:06 41.65436 44.96975 1680 ft 139 kts 316°
2026-04-30 08:06 41.66144 44.96082 1531 ft 138 kts 316°
2026-04-30 08:06 41.66769 44.95294 1523 ft 97 kts 316°
2026-04-30 08:06 41.67060 44.94930 1524 ft 35 kts 316°
2026-04-30 08:07 41.67234 44.94711 1525 ft 34 kts 317°
2026-04-30 08:07 41.67386 44.94520 1523 ft 25 kts 317°
2026-04-30 08:07 41.67494 44.94411 1521 ft 16 kts
2026-04-30 08:07 41.67552 44.94517 1522 ft 15 kts 71°
2026-04-30 08:08 41.67587 44.94657 1526 ft 17 kts 74°
2026-04-30 08:08 41.67624 44.94817 1522 ft 19 kts 74°
2026-04-30 08:08 41.67663 44.94989 1521 ft 19 kts 79°
2026-04-30 08:08 41.67608 44.95127 1521 ft 18 kts 133°
2026-04-30 08:09 41.67516 44.95256 1525 ft 20 kts 130°
2026-04-30 08:09 41.67418 44.95403 1525 ft 22 kts 130°
2026-04-30 08:09 41.67309 44.95564 1523 ft 24 kts 135°
2026-04-30 08:09 41.67186 44.95733 1526 ft 26 kts 135°
2026-04-30 08:10 41.67076 44.95893 1522 ft 21 kts 119°
2026-04-30 08:10 41.66986 44.96046 1525 ft 20 kts 131°
2026-04-30 08:10 41.66909 44.96161 1523 ft 14 kts 127°
2026-04-30 08:10 41.66857 44.96243 1520 ft 11 kts 133°
2026-04-30 08:11 41.66871 44.96309 1527 ft 7 kts 54°
2026-04-30 08:11 41.66898 44.96348 1523 ft 0 kts 43°